DW3637 Weather Reports


Display with metric or nautical units.
time (UTC)temp
F
wind
direction
speed
MPH
gust
MPH
rain 1hr
in
rain 24hr
in
rain mn
in
humidity
%
barometer
mb
20260906021018 66 90 1.0 5.0 0.01 0.01 0.01 87 1012.1
20260906020020 66 0.0 3.0 0.00 0.00 0.00 87 1012.0
20260906015023 66 0.0 1.0 0.00 0.00 0.00 87 1011.8
20260906014016 66 0.0 2.0 0.00 0.00 0.00 87 1011.8
20260906013040 67 0.0 3.0 0.00 0.00 0.00 88 1011.8
20260906012023 67 0.0 5.0 0.00 0.00 0.00 88 1011.8
20260906011017 67 0.0 1.0 0.00 0.00 0.00 89 1011.6
20260906010016 67 0.0 0.0 0.00 0.00 0.00 90 1011.5
20260906005143 67 0.0 0.0 0.00 0.00 0.00 90 1011.4
20260906004022 68 0.0 0.0 0.00 0.00 0.00 90 1011.4
20260906003017 68 0.0 1.0 0.00 0.00 0.00 89 1011.3
20260906002016 68 0.0 0.0 0.00 0.00 0.00 90 1011.1
20260906001017 68 0.0 0.0 0.00 0.00 0.00 89 1010.9
20260906000022 69 0.0 0.0 0.00 0.00 0.00 88 1010.8
20260905235016 69 0.0 0.0 0.00 0.00 0.00 86 1010.6
20260905233018 70 0.0 0.0 0.00 0.00 0.00 81 1010.4
20260905232029 71 0.0 1.0 0.00 0.00 0.00 77 1010.3
20260905231058 72 0.0 1.0 0.00 0.00 0.00 75 1010.3
20260905230038 73 0.0 2.0 0.00 0.00 0.00 74 1010.2
20260905225036 73 0.0 1.0 0.00 0.00 0.00 73 1010.2
20260905224018 73 0.0 0.0 0.00 0.00 0.00 75 1010.2
20260905223018 72 0.0 1.0 0.00 0.00 0.00 75 1010.1
20260905222018 73 0.0 3.0 0.00 0.00 0.00 74 1010.1
20260905221018 74 0.0 3.0 0.00 0.00 0.00 72 1010.0
20260905220018 74 90 1.0 7.0 0.00 0.00 0.00 71 1009.8
20260905215039 75 45 1.0 5.0 0.00 0.00 0.00 67 1009.6
20260905214018 76 0.0 2.0 0.00 0.00 0.00 61 1009.5
20260905213017 77 0.0 1.0 0.00 0.00 0.00 59 1009.5
20260905212036 78 0.0 1.0 0.00 0.00 0.00 57 1009.3
20260905211017 78 0.0 2.0 0.00 0.00 0.00 57 1009.0
20260905210017 77 0.0 1.0 0.00 0.00 0.00 58 1009.1
20260905205018 76 0.0 1.0 0.00 0.00 0.00 60 1009.1
20260905204017 76 0.0 1.0 0.00 0.00 0.00 61 1009.2
20260905203019 76 0.0 4.0 0.00 0.00 0.00 60 1009.2
20260905202037 76 0.0 1.0 0.00 0.00 0.00 61 1009.2
20260905201017 76 0.0 1.0 0.00 0.00 0.00 60 1009.1
20260905200017 76 0.0 2.0 0.00 0.00 0.00 61 1008.9
20260905195025 76 0.0 1.0 0.00 0.00 0.00 63 1008.9
20260905194019 76 0.0 4.0 0.00 0.00 0.00 63 1008.9
20260905193017 78 90 1.0 8.0 0.00 0.00 0.00 61 1008.9
20260905192021 81 45 2.0 6.0 0.00 0.00 0.00 54 1008.9
20260905191044 82 0.0 1.0 0.00 0.00 0.00 53 1008.8
20260905190017 82 0.0 1.0 0.00 0.00 0.00 52 1008.8
20260905185019 82 0.0 4.0 0.00 0.00 0.00 50 1008.7
20260905184017 82 0.0 1.0 0.00 0.00 0.00 52 1008.8
20260905183023 81 0.0 2.0 0.00 0.00 0.00 51 1008.8
20260905182100 80 0.0 2.0 0.00 0.00 0.00 52 1008.9
20260905181017 80 0.0 3.0 0.00 0.00 0.00 54 1008.9
20260905180018 81 338 1.0 6.0 0.00 0.00 0.00 50 1009.0
20260905175017 81 0.0 4.0 0.00 0.00 0.00 53 1009.1
20260905174018 80 0.0 1.0 0.00 0.00 0.00 56 1009.1
20260905173017 79 90 1.0 6.0 0.00 0.00 0.00 56 1009.1
20260905172017 79 0.0 3.0 0.00 0.00 0.00 56 1009.1
20260905171017 78 0.0 3.0 0.00 0.00 0.00 56 1009.1
20260905170017 79 90 1.0 8.0 0.00 0.00 0.00 54 1009.2
20260905165018 79 0.0 1.0 0.00 0.00 0.00 57 1009.2
20260905164017 78 0.0 4.0 0.00 0.00 0.00 59 1009.1
20260905163018 78 0.0 3.0 0.00 0.00 0.00 59 1009.2
20260905162017 78 0.0 2.0 0.00 0.00 0.00 59 1009.2
20260905161017 77 0.0 3.0 0.00 0.00 0.00 62 1009.2
20260905160038 76 45 3.0 9.0 0.00 0.00 0.00 60 1009.3
20260905155018 75 0.0 1.0 0.00 0.00 0.00 65 1009.4
20260905154017 74 68 1.0 5.0 0.00 0.00 0.00 63 1009.4
20260905153017 75 0.0 9.0 0.00 0.00 0.00 62 1009.5
20260905152017 75 0.0 3.0 0.00 0.00 0.00 65 1009.6
20260905151017 74 0.0 5.0 0.00 0.00 0.00 65 1009.6
20260905150017 74 68 1.0 11.0 0.00 0.00 0.00 67 1009.6
20260905145017 73 0.0 3.0 0.00 0.00 0.00 68 1009.5
20260905144038 72 0.0 4.0 0.00 0.00 0.00 71 1009.5
20260905143017 71 0.0 5.0 0.00 0.00 0.00 73 1009.7
20260905142017 71 45 1.0 6.0 0.00 0.00 0.00 71 1009.8
20260905141037 71 0.0 6.0 0.00 0.00 0.00 73 1009.8
20260905140018 71 68 1.0 5.0 0.00 0.00 0.00 73 1009.8
20260905135037 70 0.0 1.0 0.00 0.00 0.00 74 1009.9
20260905134017 70 0.0 5.0 0.00 0.00 0.00 75 1009.8
20260905133016 69 0.0 4.0 0.00 0.00 0.00 77 1009.9
20260905132016 69 0.0 2.0 0.00 0.00 0.00 80 1009.8
20260905131017 68 0.0 3.0 0.00 0.00 0.00 82 1009.8
20260905130037 68 0.0 1.0 0.00 0.00 0.00 84 1009.8
20260905125018 67 0.0 0.0 0.00 0.00 0.00 86 1010.0
20260905124028 66 0.0 1.0 0.00 0.00 0.00 88 1009.9
20260905123018 65 0.0 1.0 0.00 0.00 0.00 88 1009.8
20260905122046 65 0.0 1.0 0.00 0.00 0.00 90 1009.8
20260905121020 64 0.0 0.0 0.00 0.00 0.00 93 1009.7
20260905120018 62 0.0 0.0 0.00 0.00 0.00 96 1009.6
20260905115018 61 0.0 0.0 0.00 0.00 0.00 97 1009.6
20260905114027 61 0.0 0.0 0.00 0.00 0.00 97 1009.4
20260905113056 60 0.0 0.0 0.00 0.00 0.00 97 1009.4
20260905112022 59 0.0 0.0 0.00 0.00 0.00 96 1009.3
20260905111017 59 0.0 0.0 0.00 0.00 0.00 96 1009.3
20260905110018 59 0.0 0.0 0.00 0.00 0.00 96 1009.1
20260905105040 58 0.0 0.0 0.00 0.00 0.00 96 1008.9
20260905104040 59 0.0 0.0 0.00 0.00 0.00 96 1008.9
20260905103016 59 0.0 0.0 0.00 0.00 0.00 96 1008.9
20260905102019 59 0.0 0.0 0.00 0.00 0.00 95 1008.9
20260905101016 59 0.0 0.0 0.00 0.00 0.00 95 1008.8
20260905100020 59 0.0 0.0 0.00 0.00 0.00 95 1008.8
20260905095036 59 0.0 0.0 0.00 0.00 0.00 96 1008.7
20260905094016 59 0.0 0.0 0.00 0.00 0.00 95 1008.7
20260905093016 59 0.0 0.0 0.00 0.00 0.00 95 1008.6
20260905092017 59 0.0 0.0 0.00 0.00 0.00 95 1008.7
20260905091036 59 0.0 0.0 0.00 0.00 0.00 95 1008.6
20260905090017 60 0.0 0.0 0.00 0.00 0.00 94 1008.7
20260905085017 60 0.0 0.0 0.00 0.00 0.00 94 1008.6
20260905084017 60 0.0 0.0 0.00 0.00 0.00 94 1008.4
20260905083016 60 0.0 0.0 0.00 0.00 0.00 94 1008.4
20260905082016 60 0.0 0.0 0.00 0.00 0.00 93 1008.4
20260905081036 61 0.0 0.0 0.00 0.00 0.00 94 1008.5
20260905080036 61 0.0 0.0 0.00 0.00 0.00 93 1008.6
20260905075016 61 0.0 0.0 0.00 0.00 0.00 93 1008.6
20260905074019 61 0.0 0.0 0.00 0.00 0.00 93 1008.6
20260905073016 61 0.0 0.0 0.00 0.00 0.00 92 1008.6
20260905072016 62 0.0 0.0 0.00 0.00 0.00 92 1008.7
20260905071057 62 0.0 0.0 0.00 0.00 0.00 92 1008.6
20260905070017 62 0.0 0.0 0.00 0.00 0.00 91 1008.7
20260905065016 62 0.0 0.0 0.00 0.00 0.00 91 1008.7
20260905064036 62 0.0 0.0 0.00 0.00 0.00 91 1008.7
20260905063016 63 0.0 0.0 0.00 0.00 0.00 90 1008.7
20260905062017 63 0.0 0.0 0.00 0.00 0.00 89 1008.8
20260905061016 63 0.0 0.0 0.00 0.00 0.00 89 1008.9
20260905060016 64 0.0 0.0 0.00 0.00 0.00 89 1009.0
20260905055016 64 0.0 0.0 0.00 0.00 0.00 89 1009.1
20260905054016 64 0.0 0.0 0.00 0.00 0.00 88 1009.2
20260905053016 64 0.0 0.0 0.00 0.00 0.00 88 1009.1
20260905052016 65 0.0 0.0 0.00 0.00 0.00 87 1009.3
20260905051016 65 0.0 0.0 0.00 0.00 0.00 86 1009.4
20260905050016 65 0.0 1.0 0.00 0.00 0.00 85 1009.5
20260905045016 66 0.0 0.0 0.00 0.00 0.00 84 1009.5
20260905044016 66 0.0 0.0 0.00 0.00 0.00 83 1009.5
20260905043016 67 0.0 0.0 0.00 0.00 0.00 82 1009.4
20260905042016 68 0.0 0.0 0.00 0.00 0.00 80 1009.3
20260905041019 68 0.0 0.0 0.00 0.00 0.00 79 1009.1
20260905040017 68 0.0 0.0 0.00 0.00 0.00 78 1009.0
20260905035025 68 0.0 0.0 0.00 0.00 0.00 78 1009.0
20260905034016 69 0.0 0.0 0.00 0.00 0.00 78 1009.2
20260905033037 69 0.0 1.0 0.00 0.00 0.00 78 1009.1
20260905032017 69 0.0 0.0 0.00 0.00 0.00 78 1009.1
20260905031036 69 0.0 1.0 0.00 0.00 0.00 77 1009.1
20260905030036 70 0.0 0.0 0.00 0.00 0.00 77 1009.2
20260905025017 70 0.0 0.0 0.00 0.00 0.00 76 1009.2
20260905024036 71 0.0 3.0 0.00 0.00 0.00 75 1009.2
20260905023017 71 0.0 2.0 0.00 0.00 0.00 74 1009.1
20260905022036 71 0.0 1.0 0.00 0.00 0.00 72 1008.8